Radiation Dose at Monitoring Post of Fukushima Daini Nuclear Power Station
Date,Time,MP-1(microSv/h),MP-2(microSv/h),MP-3(microSv/h),MP-4(microSv/h),MP-5(microSv/h),MP-6(microSv/h),MP-7(microSv/h),Wind Direction,Wind Velocity(m/s),Rain
2016/11/23,00:00,0.398,0.232,0.404,0.374,0.361,0.192,0.166,west-northwest,2.2,Yes
2016/11/23,00:10,0.398,0.235,0.409,0.373,0.359,0.193,0.166,west-northwest,2.9,Yes
2016/11/23,00:20,0.401,0.236,0.406,0.377,0.362,0.195,0.168,northwest,2.4,No
2016/11/23,00:30,0.400,0.235,0.410,0.374,0.360,0.194,0.167,north,3.9,Yes
2016/11/23,00:40,0.397,0.237,0.409,0.377,0.364,0.196,0.168,north,8.6,Yes
2016/11/23,00:50,0.403,0.236,0.410,0.377,0.363,0.197,0.169,north,10.8,Yes
2016/11/23,01:00,0.401,0.237,0.411,0.376,0.363,0.197,0.170,north,10.3,Yes
2016/11/23,01:10,0.402,0.239,0.412,0.381,0.367,0.201,0.172,north,7.8,Yes
2016/11/23,01:20,0.408,0.244,0.414,0.381,0.366,0.203,0.175,north,9.6,Yes
2016/11/23,01:30,0.407,0.244,0.415,0.381,0.367,0.204,0.175,north,11.0,Yes
2016/11/23,01:40,0.408,0.244,0.413,0.381,0.370,0.203,0.175,north,11.0,Yes
2016/11/23,01:50,0.407,0.244,0.413,0.380,0.367,0.203,0.175,north,14.3,Yes
2016/11/23,02:00,0.406,0.244,0.414,0.380,0.366,0.203,0.174,north,11.8,Yes
2016/11/23,02:10,0.406,0.242,0.410,0.379,0.368,0.202,0.174,north,11.5,Yes
2016/11/23,02:20,0.408,0.242,0.411,0.377,0.365,0.200,0.171,north,10.9,Yes
2016/11/23,02:30,0.405,0.243,0.414,0.379,0.367,0.201,0.173,north,8.7,Yes
2016/11/23,02:40,0.405,0.243,0.410,0.378,0.367,0.203,0.175,north,9.0,Yes
2016/11/23,02:50,0.405,0.241,0.410,0.378,0.367,0.204,0.175,north,9.8,Yes
2016/11/23,03:00,0.405,0.241,0.412,0.379,0.366,0.203,0.174,north,10.0,Yes
2016/11/23,03:10,0.403,0.238,0.409,0.376,0.365,0.201,0.173,north,10.9,No
2016/11/23,03:20,0.401,0.238,0.408,0.373,0.363,0.199,0.172,north,12.9,Yes
2016/11/23,03:30,0.401,0.237,0.407,0.376,0.361,0.198,0.168,north,13.4,Yes
2016/11/23,03:40,0.397,0.235,0.408,0.373,0.361,0.197,0.168,north,11.8,Yes
2016/11/23,03:50,0.399,0.233,0.405,0.373,0.361,0.195,0.167,north,10.3,Yes
2016/11/23,04:00,0.400,0.234,0.406,0.373,0.360,0.195,0.166,north,10.8,Yes
2016/11/23,04:10,0.398,0.234,0.406,0.372,0.359,0.196,0.167,north,11.2,Yes
2016/11/23,04:20,0.398,0.235,0.406,0.371,0.362,0.195,0.168,north,10.3,Yes
2016/11/23,04:30,0.400,0.235,0.406,0.370,0.360,0.195,0.168,north,10.7,No
2016/11/23,04:40,0.398,0.234,0.407,0.372,0.361,0.195,0.167,north,10.5,No
2016/11/23,04:50,0.397,0.233,0.405,0.372,0.360,0.193,0.166,north,9.3,No
2016/11/23,05:00,0.397,0.233,0.403,0.370,0.360,0.193,0.165,north,9.1,No
2016/11/23,05:10,0.396,0.232,0.404,0.372,0.358,0.193,0.165,north,7.5,No
2016/11/23,05:20,0.396,0.231,0.405,0.369,0.358,0.192,0.164,north,7.3,Yes
2016/11/23,05:30,0.394,0.232,0.405,0.370,0.360,0.192,0.165,north,8.1,Yes
2016/11/23,05:40,0.396,0.232,0.405,0.370,0.358,0.192,0.164,north,8.0,No
2016/11/23,05:50,0.397,0.231,0.405,0.368,0.357,0.191,0.163,north,8.2,Yes
2016/11/23,06:00,0.394,0.232,0.403,0.369,0.359,0.191,0.163,north,8.6,Yes
2016/11/23,06:10,0.397,0.231,0.405,0.371,0.357,0.192,0.164,north,8.1,No
2016/11/23,06:20,0.397,0.232,0.404,0.369,0.356,0.192,0.163,north,8.1,Yes
2016/11/23,06:30,0.393,0.231,0.404,0.368,0.356,0.191,0.164,north,8.2,Yes
2016/11/23,06:40,0.394,0.231,0.403,0.370,0.357,0.191,0.163,north,8.7,No
2016/11/23,06:50,0.396,0.231,0.405,0.370,0.357,0.190,0.163,north,7.7,No
2016/11/23,07:00,0.393,0.232,0.404,0.367,0.357,0.191,0.163,north,6.4,No
2016/11/23,07:10,0.395,0.231,0.403,0.369,0.357,0.190,0.161,north,5.7,No
2016/11/23,07:20,0.395,0.231,0.405,0.369,0.357,0.191,0.162,north,6.1,No
2016/11/23,07:30,0.396,0.231,0.403,0.367,0.355,0.189,0.163,north,7.4,No
2016/11/23,07:40,0.394,0.231,0.403,0.369,0.356,0.190,0.162,north,6.9,No
2016/11/23,07:50,0.397,0.231,0.405,0.370,0.356,0.190,0.163,north,4.2,No
2016/11/23,08:00,0.394,0.231,0.403,0.369,0.355,0.192,0.162,northwest,2.2,No
2016/11/23,08:10,0.393,0.230,0.403,0.369,0.358,0.190,0.163,north-northwest,3.3,No
2016/11/23,08:20,0.396,0.231,0.404,0.368,0.357,0.190,0.163,north-northwest,6.9,No
2016/11/23,08:30,0.396,0.232,0.403,0.368,0.356,0.191,0.162,north,5.5,No
2016/11/23,08:40,0.395,0.231,0.404,0.370,0.358,0.190,0.163,north,7.0,No
2016/11/23,08:50,0.396,0.231,0.406,0.369,0.356,0.190,0.163,north,6.0,No
2016/11/23,09:00,0.394,0.231,0.404,0.369,0.357,0.190,0.163,north,6.0,No
2016/11/23,09:10,0.394,0.231,0.405,0.370,0.357,0.192,0.162,north,6.2,No
2016/11/23,09:20,0.395,0.231,0.404,0.370,0.357,0.191,0.162,north-northwest,4.2,No
2016/11/23,09:30,0.395,0.231,0.405,0.371,0.358,0.191,0.163,north-northwest,3.4,No
2016/11/23,09:40,0.395,0.231,0.405,0.371,0.358,0.191,0.163,north,5.1,No
2016/11/23,09:50,0.396,0.232,0.406,0.369,0.357,0.190,0.163,north-northwest,3.9,No
2016/11/23,10:00,0.396,0.233,0.405,0.370,0.356,0.192,0.162,north-northwest,4.1,No
2016/11/23,10:10,0.395,0.232,0.404,0.367,0.359,0.191,0.162,northwest,3.1,No
2016/11/23,10:20,0.397,0.233,0.406,0.369,0.356,0.191,0.163,north-northwest,6.7,No
2016/11/23,10:30,0.395,0.231,0.403,0.369,0.356,0.191,0.161,north-northwest,5.4,No
2016/11/23,10:40,0.397,0.232,0.408,0.369,0.358,0.190,0.162,north-northwest,7.5,No
2016/11/23,10:50,0.397,0.231,0.407,0.370,0.359,0.192,0.163,north-northwest,4.7,No
2016/11/23,11:00,0.395,0.231,0.406,0.370,0.359,0.193,0.164,northwest,6.2,No
2016/11/23,11:10,0.395,0.232,0.405,0.371,0.357,0.191,0.165,north,4.7,No
2016/11/23,11:20,0.395,0.232,0.404,0.368,0.354,0.192,0.164,north-northwest,7.5,No
2016/11/23,11:30,0.394,0.232,0.406,0.371,0.358,0.191,0.164,north-northwest,8.2,No
2016/11/23,11:40,0.397,0.232,0.405,0.369,0.355,0.192,0.163,north-northwest,7.2,No
2016/11/23,11:50,0.395,0.230,0.405,0.370,0.357,0.192,0.163,north,7.4,No
2016/11/23,12:00,0.396,0.231,0.406,0.370,0.357,0.192,0.162,north-northwest,5.2,No
2016/11/23,12:10,0.395,0.232,0.402,0.370,0.358,0.192,0.164,north,6.7,No
2016/11/23,12:20,0.398,0.231,0.406,0.372,0.360,0.192,0.163,north,6.3,No
2016/11/23,12:30,0.397,0.231,0.404,0.370,0.359,0.193,0.164,north,7.1,No
2016/11/23,12:40,0.397,0.232,0.406,0.373,0.359,0.191,0.165,north,8.4,No
2016/11/23,12:50,0.397,0.231,0.408,0.370,0.359,0.191,0.164,north,10.4,No
2016/11/23,13:00,0.397,0.232,0.406,0.373,0.357,0.192,0.163,north,9.0,No
2016/11/23,13:10,0.399,0.233,0.407,0.371,0.360,0.192,0.165,north,8.2,No
2016/11/23,13:20,0.398,0.232,0.406,0.371,0.360,0.191,0.163,north,8.5,No
2016/11/23,13:30,0.397,0.233,0.406,0.372,0.359,0.193,0.164,north,6.0,No
2016/11/23,13:40,0.399,0.233,0.408,0.370,0.360,0.192,0.165,north,4.6,No
2016/11/23,13:50,0.399,0.232,0.406,0.374,0.359,0.191,0.165,north,5.9,No
2016/11/23,14:00,0.398,0.233,0.406,0.371,0.359,0.193,0.164,north,6.4,No
2016/11/23,14:10,0.400,0.231,0.408,0.371,0.360,0.191,0.164,north,5.9,No
2016/11/23,14:20,0.397,0.233,0.407,0.372,0.356,0.193,0.165,north,8.0,No
2016/11/23,14:30,0.398,0.232,0.408,0.370,0.357,0.191,0.164,north,8.4,No
2016/11/23,14:40,0.400,0.231,0.408,0.372,0.358,0.192,0.165,north,8.5,No
2016/11/23,14:50,0.398,0.232,0.405,0.371,0.358,0.192,0.163,north,11.2,No
2016/11/23,15:00,0.398,0.232,0.407,0.371,0.360,0.192,0.165,north,8.1,No
2016/11/23,15:10,0.400,0.231,0.405,0.374,0.358,0.193,0.165,north,7.1,No
2016/11/23,15:20,0.398,0.233,0.407,0.371,0.359,0.192,0.165,north,8.0,No
2016/11/23,15:30,0.399,0.232,0.408,0.372,0.358,0.192,0.166,north-northeast,8.4,No
2016/11/23,15:40,0.400,0.232,0.407,0.370,0.360,0.192,0.165,north,9.7,No
2016/11/23,15:50,0.399,0.233,0.407,0.372,0.359,0.192,0.166,north,10.5,No
2016/11/23,16:00,0.397,0.232,0.408,0.373,0.358,0.193,0.164,north,6.1,No
2016/11/23,16:10,0.399,0.232,0.409,0.375,0.359,0.192,0.164,north,8.1,No
2016/11/23,16:20,0.399,0.231,0.406,0.373,0.357,0.193,0.165,north,8.9,No
2016/11/23,16:30,0.399,0.233,0.408,0.372,0.359,0.192,0.164,north,7.4,No
2016/11/23,16:40,0.402,0.231,0.409,0.373,0.360,0.192,0.166,north,10.1,No
2016/11/23,16:50,0.399,0.233,0.408,0.371,0.358,0.192,0.164,north,10.6,No
2016/11/23,17:00,0.398,0.233,0.406,0.373,0.357,0.193,0.165,north,10.2,No
2016/11/23,17:10,0.397,0.233,0.409,0.372,0.358,0.192,0.165,north-northwest,8.6,No
2016/11/23,17:20,0.399,0.233,0.408,0.371,0.359,0.193,0.164,north-northwest,7.6,No
2016/11/23,17:30,0.400,0.233,0.406,0.371,0.359,0.192,0.165,north-northwest,6.3,No
2016/11/23,17:40,0.400,0.234,0.408,0.373,0.358,0.191,0.164,northwest,2.8,No
2016/11/23,17:50,0.401,0.233,0.410,0.373,0.359,0.193,0.165,west-northwest,1.9,No
2016/11/23,18:00,0.398,0.233,0.409,0.372,0.358,0.192,0.164,west-northwest,3.3,No
2016/11/23,18:10,0.398,0.233,0.407,0.373,0.359,0.193,0.165,north,3.4,No
2016/11/23,18:20,0.399,0.233,0.406,0.372,0.357,0.192,0.165,northwest,4.8,No
2016/11/23,18:30,0.399,0.233,0.409,0.373,0.357,0.193,0.165,northwest,5.2,No
2016/11/23,18:40,0.398,0.232,0.408,0.373,0.358,0.193,0.165,north-northwest,4.6,No
2016/11/23,18:50,0.398,0.233,0.407,0.373,0.358,0.192,0.165,north-northwest,3.7,No
2016/11/23,19:00,0.399,0.231,0.408,0.373,0.357,0.193,0.165,north-northwest,4.4,No
2016/11/23,19:10,0.401,0.233,0.408,0.373,0.357,0.194,0.165,north,4.2,No
2016/11/23,19:20,0.399,0.232,0.408,0.373,0.358,0.193,0.164,north,6.2,No
2016/11/23,19:30,0.397,0.232,0.408,0.372,0.358,0.192,0.165,north,5.6,No
2016/11/23,19:40,0.399,0.233,0.410,0.373,0.358,0.193,0.165,north,7.6,No
2016/11/23,19:50,0.401,0.232,0.408,0.373,0.359,0.193,0.165,north,8.1,No
2016/11/23,20:00,0.398,0.232,0.406,0.372,0.357,0.193,0.165,north,7.3,No
2016/11/23,20:10,0.399,0.233,0.409,0.374,0.357,0.193,0.165,north,7.0,No
2016/11/23,20:20,0.401,0.232,0.408,0.372,0.358,0.194,0.165,north,6.7,No
2016/11/23,20:30,0.399,0.233,0.408,0.372,0.359,0.194,0.165,north,5.5,No
2016/11/23,20:40,0.399,0.232,0.406,0.372,0.359,0.193,0.163,north,6.4,No
2016/11/23,20:50,0.399,0.232,0.409,0.372,0.358,0.193,0.164,north,6.9,No
2016/11/23,21:00,0.400,0.232,0.409,0.372,0.357,0.194,0.165,north-northwest,6.2,No
2016/11/23,21:10,0.400,0.233,0.407,0.371,0.357,0.194,0.164,northwest,4.8,No
2016/11/23,21:20,0.400,0.233,0.409,0.372,0.358,0.193,0.164,northwest,4.8,No
2016/11/23,21:30,0.398,0.233,0.409,0.374,0.358,0.192,0.165,northwest,5.6,No
2016/11/23,21:40,0.399,0.232,0.408,0.371,0.358,0.193,0.165,northwest,5.6,No
2016/11/23,21:50,0.399,0.233,0.408,0.372,0.358,0.193,0.165,north-northwest,5.6,No
2016/11/23,22:00,0.399,0.232,0.408,0.372,0.358,0.193,0.164,north-northwest,6.7,No
2016/11/23,22:10,0.398,0.232,0.408,0.373,0.359,0.192,0.166,north-northwest,7.8,No
2016/11/23,22:20,0.400,0.233,0.407,0.372,0.357,0.192,0.164,north-northwest,8.0,No
2016/11/23,22:30,0.400,0.232,0.408,0.372,0.357,0.192,0.165,north-northwest,7.6,No
2016/11/23,22:40,0.400,0.232,0.408,0.371,0.358,0.192,0.164,north-northwest,7.1,No
2016/11/23,22:50,0.399,0.233,0.409,0.372,0.358,0.192,0.165,north-northwest,8.1,No
2016/11/23,23:00,0.399,0.232,0.408,0.371,0.358,0.193,0.164,north-northwest,7.8,No
2016/11/23,23:10,0.397,0.233,0.410,0.372,0.357,0.192,0.165,north-northwest,8.7,No
2016/11/23,23:20,0.399,0.233,0.409,0.374,0.357,0.192,0.164,north-northwest,9.5,No
2016/11/23,23:30,0.400,0.232,0.408,0.373,0.358,0.192,0.164,northwest,9.5,No
2016/11/23,23:40,0.400,0.233,0.409,0.372,0.357,0.192,0.165,northwest,10.2,No
2016/11/23,23:50,0.400,0.232,0.408,0.374,0.360,0.192,0.165,west-northwest,9.2,No
